HASTNG-WX Weather Reports


time (UTC)temp
F
wind
direction
speed
knots
gust
knots
rain 1hr
in
rain 24hr
in
rain mn
in
humidity
%
barometer
mb
20260509064530 46 177 6.1 0.0 0.00 0.00 0.00 65 976.4
20260509063047 45 172 6.1 0.0 0.00 0.00 0.00 58 976.3
20260509061531 45 170 7.0 0.0 0.00 0.00 0.00 58 976.3
20260509060107 45 159 7.0 0.0 0.00 0.00 0.00 58 976.3
20260509054531 45 159 6.1 0.0 0.00 0.00 0.00 44 977.4
20260509053046 46 163 6.1 0.0 0.00 0.00 0.00 46 977.0
20260509051529 45 156 6.1 0.0 0.00 0.00 0.00 46 977.0
20260509050100 45 159 5.2 0.0 0.00 0.00 0.00 46 977.0
20260509044530 45 160 4.3 0.0 0.00 0.00 0.00 42 977.9
20260509043046 46 159 5.2 0.0 0.00 0.00 0.00 41 976.8
20260509041529 47 167 4.3 0.0 0.00 0.00 0.00 41 976.9
20260509034530 48 169 4.3 0.0 0.00 0.00 0.00 38 977.6
20260509033045 48 169 4.3 0.0 0.00 0.00 0.00 37 978.4
20260509031529 48 171 4.3 0.0 0.00 0.00 0.00 37 978.4
20260509030100 49 174 5.2 0.0 0.00 0.00 0.00 37 978.4
20260509024529 50 189 4.3 0.0 0.00 0.00 0.00 32 978.5
20260509023048 51 195 5.2 0.0 0.00 0.00 0.00 38 978.6
20260509021529 50 212 4.3 0.0 0.00 0.00 0.00 38 978.5
20260509020058 51 234 3.5 0.0 0.00 0.00 0.00 38 978.5
20260509014529 51 233 3.5 0.0 0.00 0.00 0.00 37 978.2
20260509013044 52 242 3.5 0.0 0.00 0.00 0.00 37 978.2
20260509011529 53 257 3.5 0.0 0.00 0.00 0.00 37 978.2
20260509010054 54 264 3.5 0.0 0.00 0.00 0.00 37 978.2
20260509004528 55 273 3.5 0.0 0.00 0.00 0.00 27 978.0
20260509003046 56 273 3.5 0.0 0.00 0.00 0.00 28 979.3
20260509001528 57 277 4.3 0.0 0.00 0.00 0.00 28 979.3
20260508234529 59 273 7.0 0.0 0.00 0.00 0.00 24 978.4
20260508233048 60 270 7.8 0.0 0.00 0.00 0.00 23 979.0
20260508231530 60 269 7.8 0.0 0.00 0.00 0.00 23 979.0
20260508230054 61 270 8.7 0.0 0.00 0.00 0.00 23 979.0
20260508224530 61 274 8.7 0.0 0.00 0.00 0.00 23 979.0
20260508223049 61 272 9.6 0.0 0.00 0.00 0.00 21 979.9
20260508221531 61 273 9.6 0.0 0.00 0.00 0.00 21 979.9
20260508220054 62 271 9.6 0.0 0.00 0.00 0.00 21 979.9
20260508214531 62 270 9.6 0.0 0.00 0.00 0.00 20 980.3
20260508213048 62 266 10.4 0.0 0.00 0.00 0.00 24 979.8
20260508211531 63 257 10.4 0.0 0.00 0.00 0.00 24 979.8
20260508210059 63 255 9.6 0.0 0.00 0.00 0.00 24 979.8
20260508204531 63 253 10.4 0.0 0.00 0.00 0.00 29 980.1
20260508203049 63 253 10.4 0.0 0.00 0.00 0.00 26 979.8
20260508201531 63 244 8.7 0.0 0.00 0.00 0.00 26 979.8
20260508200056 63 250 8.7 0.0 0.00 0.00 0.00 23 979.8
20260508194531 63 253 8.7 0.0 0.00 0.00 0.00 25 980.1
20260508193046 63 248 8.7 0.0 0.00 0.00 0.00 25 980.1
20260508191530 63 255 8.7 0.0 0.00 0.00 0.00 25 980.2
20260508190054 63 255 7.8 0.0 0.00 0.00 0.00 25 980.2
20260508184531 62 252 7.8 0.0 0.00 0.00 0.00 29 980.6
20260508183050 62 246 8.7 0.0 0.00 0.00 0.00 30 980.4
20260508181530 62 246 8.7 0.0 0.00 0.00 0.00 30 980.4
20260508180059 61 247 8.7 0.0 0.00 0.00 0.00 30 980.4
20260508174531 61 247 8.7 0.0 0.00 0.00 0.00 30 981.3
20260508173049 61 250 8.7 0.0 0.00 0.00 0.00 30 981.3
20260508171530 60 248 8.7 0.0 0.00 0.00 0.00 30 981.3
20260508170056 60 254 8.7 0.0 0.00 0.00 0.00 29 981.3
20260508164530 60 252 7.8 0.0 0.00 0.00 0.00 35 981.3
20260508163049 59 248 6.1 0.0 0.00 0.00 0.00 35 981.7
20260508161531 58 246 7.0 0.0 0.00 0.00 0.00 35 981.7
20260508160100 57 242 6.1 0.0 0.00 0.00 0.00 35 981.7
20260508154531 56 235 5.2 0.0 0.00 0.00 0.00 41 982.6
20260508153050 55 218 5.2 0.0 0.00 0.00 0.00 44 981.8
20260508151530 54 210 4.3 0.0 0.00 0.00 0.00 44 981.8
20260508150058 53 210 4.3 0.0 0.00 0.00 0.00 44 981.8
20260508144531 53 204 3.5 0.0 0.00 0.00 0.00 54 981.8
20260508143048 52 209 4.3 0.0 0.00 0.00 0.00 53 981.9
20260508141531 51 204 3.5 0.0 0.00 0.00 0.00 53 981.9
20260508140104 51 200 3.5 0.0 0.00 0.00 0.00 60 981.8
20260508134531 50 197 3.5 0.0 0.00 0.00 0.00 68 981.7
20260508133046 48 188 5.2 0.0 0.00 0.00 0.00 68 981.7
20260508131531 47 187 4.3 0.0 0.00 0.00 0.00 68 981.7
20260508124531 44 187 4.3 0.0 0.00 0.00 0.00 86 980.8
20260508123049 43 187 4.3 0.0 0.00 0.00 0.00 84 981.5
20260508121530 42 180 3.5 0.0 0.00 0.00 0.00 84 981.5
20260508120108 40 172 2.6 0.0 0.00 0.00 0.00 84 981.5
20260508114530 38 171 1.7 0.0 0.00 0.00 0.00 87 980.9
20260508113051 37 163 2.6 0.0 0.00 0.00 0.00 84 981.6
20260508111530 37 153 2.6 0.0 0.00 0.00 0.00 84 981.7
20260508110056 37 158 3.5 0.0 0.00 0.00 0.00 84 981.7
20260508104533 36 156 3.5 0.0 0.00 0.00 0.00 80 980.6
20260508103050 36 150 3.5 0.0 0.00 0.00 0.00 78 981.7
20260508101533 37 152 2.6 0.0 0.00 0.00 0.00 78 981.7
20260508100055 37 150 2.6 0.0 0.00 0.00 0.00 78 981.7
20260508094532 37 150 2.6 0.0 0.00 0.00 0.00 75 981.0
20260508093046 38 145 1.7 0.0 0.00 0.00 0.00 81 981.7
20260508091533 38 197 1.7 0.0 0.00 0.00 0.00 81 981.7
20260508090059 38 211 1.7 0.0 0.00 0.00 0.00 81 981.7
20260508084532 38 216 2.6 0.0 0.00 0.00 0.00 79 981.1
20260508083051 38 196 2.6 0.0 0.00 0.00 0.00 80 981.1
20260508081532 39 186 3.5 0.0 0.00 0.00 0.00 80 981.1
20260508080100 39 198 2.6 0.0 0.00 0.00 0.00 80 981.1
20260508074533 39 219 1.7 0.0 0.00 0.00 0.00 87 981.9
20260508073051 39 225 2.6 0.0 0.00 0.00 0.00 87 981.9
20260508071531 40 195 2.6 0.0 0.00 0.00 0.00 87 982.0
20260508070101 40 209 3.5 0.0 0.00 0.00 0.00 87 982.0